| time (UTC) | temp F | wind direction | speed MPH | gust MPH | rain 1hr in | rain 24hr in | rain mn in | humidity % | barometer mb |
| 20260506061508 | 56 | 249 | 1.0 | 3.0 | 0.00 | 0.00 | 0.00 | 84 | 1016.0 |
| 20260506050104 | 58 | 258 | 2.0 | 6.0 | 0.00 | 0.00 | 0.00 | 80 | 1015.5 |
| 20260506044522 | 59 | 246 | 2.0 | 4.0 | 0.00 | 0.00 | 0.00 | 80 | 1015.5 |
| 20260506043042 | 60 | 248 | 2.0 | 4.0 | 0.00 | 0.00 | 0.00 | 80 | 1015.4 |
| 20260506041552 | 60 | 251 | 2.0 | 3.0 | 0.00 | 0.00 | 0.00 | 80 | 1015.2 |
| 20260506040003 | 60 | 251 | 0.0 | 3.0 | 0.00 | 0.00 | 0.00 | 79 | 1015.2 |
| 20260506034540 | 61 | 251 | 1.0 | 3.0 | 0.00 | 0.00 | 0.00 | 78 | 1015.0 |
| 20260506033052 | 61 | 251 | 1.0 | 3.0 | 0.00 | 0.00 | 0.00 | 77 | 1014.8 |
| 20260506031516 | 62 | 251 | 0.0 | 4.0 | 0.00 | 0.00 | 0.00 | 76 | 1014.7 |
| 20260506030008 | 62 | 258 | 0.0 | 3.0 | 0.00 | 0.00 | 0.00 | 75 | 1014.6 |
| 20260506024536 | 62 | 257 | 1.0 | 3.0 | 0.00 | 0.00 | 0.00 | 74 | 1014.6 |
| 20260506023026 | 63 | 278 | 2.0 | 4.0 | 0.00 | 0.00 | 0.00 | 74 | 1014.6 |
| 20260506021533 | 63 | 263 | 2.0 | 6.0 | 0.00 | 0.00 | 0.00 | 73 | 1014.6 |
| 20260506020017 | 64 | 247 | 2.0 | 6.0 | 0.00 | 0.00 | 0.00 | 71 | 1014.5 |
| 20260506014530 | 65 | 236 | 1.0 | 6.0 | 0.00 | 0.00 | 0.00 | 70 | 1014.5 |
| 20260506013045 | 65 | 284 | 2.0 | 5.0 | 0.00 | 0.00 | 0.00 | 68 | 1014.5 |
| 20260506011606 | 65 | 213 | 3.0 | 9.0 | 0.00 | 0.00 | 0.00 | 68 | 1014.6 |
| 20260506010017 | 65 | 274 | 2.0 | 7.0 | 0.00 | 0.00 | 0.00 | 69 | 1014.7 |
| 20260506004530 | 64 | 324 | 3.0 | 8.0 | 0.00 | 0.00 | 0.00 | 70 | 1014.7 |
| 20260506003014 | 65 | 268 | 1.0 | 5.0 | 0.00 | 0.00 | 0.00 | 68 | 1014.8 |
| 20260506001527 | 65 | 281 | 3.0 | 8.0 | 0.00 | 0.00 | 0.00 | 68 | 1014.8 |
| 20260506000039 | 65 | 338 | 1.0 | 7.0 | 0.00 | 0.00 | 0.00 | 69 | 1014.8 |
| 20260505234558 | 64 | 285 | 3.0 | 10.0 | 0.00 | 0.00 | 0.00 | 68 | 1015.0 |
| 20260505233059 | 64 | 233 | 4.0 | 8.0 | 0.00 | 0.00 | 0.00 | 70 | 1015.1 |
| 20260505233001 | 64 | 233 | 3.0 | 8.0 | 0.00 | 0.00 | 0.00 | 70 | 1015.2 |
| 20260505231514 | 63 | 254 | 3.0 | 7.0 | 0.00 | 0.00 | 0.00 | 71 | 1015.2 |
| 20260505230031 | 63 | 284 | 2.0 | 5.0 | 0.00 | 0.00 | 0.00 | 72 | 1015.3 |
| 20260505224537 | 63 | 246 | 2.0 | 7.0 | 0.00 | 0.00 | 0.00 | 71 | 1015.5 |
| 20260505223047 | 62 | 231 | 4.0 | 8.0 | 0.00 | 0.00 | 0.00 | 72 | 1015.6 |
| 20260505221559 | 63 | 241 | 3.0 | 5.0 | 0.00 | 0.00 | 0.00 | 72 | 1015.7 |
| 20260505220004 | 62 | 258 | 2.0 | 6.0 | 0.00 | 0.00 | 0.00 | 74 | 1015.8 |
| 20260505214558 | 61 | 291 | 1.0 | 7.0 | 0.00 | 0.00 | 0.00 | 76 | 1015.9 |
| 20260505213045 | 61 | 253 | 3.0 | 8.0 | 0.00 | 0.00 | 0.00 | 76 | 1016.0 |
| 20260505211606 | 60 | 239 | 1.0 | 6.0 | 0.00 | 0.00 | 0.00 | 77 | 1016.0 |
| 20260505210045 | 60 | 263 | 1.0 | 5.0 | 0.00 | 0.00 | 0.00 | 77 | 1016.0 |
| 20260505204547 | 60 | 268 | 3.0 | 7.0 | 0.00 | 0.00 | 0.00 | 77 | 1016.1 |
| 20260505203054 | 59 | 204 | 3.0 | 5.0 | 0.00 | 0.00 | 0.00 | 78 | 1016.0 |
| 20260505201515 | 59 | 301 | 3.0 | 8.0 | 0.00 | 0.00 | 0.00 | 79 | 1016.1 |
| 20260505200023 | 59 | 254 | 2.0 | 4.0 | 0.00 | 0.00 | 0.00 | 80 | 1016.0 |
| 20260505194509 | 58 | 244 | 2.0 | 7.0 | 0.00 | 0.00 | 0.00 | 80 | 1016.0 |
| 20260505193048 | 58 | 262 | 2.0 | 6.0 | 0.00 | 0.00 | 0.00 | 80 | 1016.0 |
| 20260505191542 | 58 | 239 | 3.0 | 8.0 | 0.00 | 0.00 | 0.00 | 80 | 1016.0 |
| 20260505190028 | 58 | 251 | 2.0 | 7.0 | 0.00 | 0.00 | 0.00 | 81 | 1016.0 |
| 20260505184533 | 57 | 223 | 4.0 | 7.0 | 0.00 | 0.00 | 0.00 | 81 | 1016.0 |
| 20260505183054 | 57 | 198 | 2.0 | 8.0 | 0.00 | 0.00 | 0.00 | 82 | 1015.9 |
| 20260505181556 | 57 | 235 | 2.0 | 4.0 | 0.00 | 0.00 | 0.00 | 83 | 1015.9 |
| 20260505180016 | 57 | 208 | 3.0 | 6.0 | 0.00 | 0.00 | 0.00 | 83 | 1015.9 |
| 20260505174523 | 56 | 266 | 1.0 | 7.0 | 0.00 | 0.00 | 0.00 | 83 | 1015.8 |
| 20260505173028 | 56 | 249 | 2.0 | 6.0 | 0.00 | 0.00 | 0.00 | 84 | 1015.8 |
| 20260505171534 | 56 | 212 | 2.0 | 7.0 | 0.00 | 0.00 | 0.00 | 84 | 1015.7 |
| 20260505170042 | 56 | 233 | 2.0 | 7.0 | 0.00 | 0.00 | 0.00 | 84 | 1015.6 |
| 20260505164550 | 56 | 214 | 3.0 | 7.0 | 0.00 | 0.00 | 0.00 | 85 | 1015.5 |
| 20260505163009 | 55 | 253 | 2.0 | 6.0 | 0.00 | 0.00 | 0.00 | 85 | 1015.5 |
| 20260505161521 | 56 | 193 | 1.0 | 6.0 | 0.00 | 0.00 | 0.00 | 85 | 1015.4 |
| 20260505153023 | 55 | 225 | 4.0 | 7.0 | 0.00 | 0.00 | 0.00 | 86 | 1015.3 |
| 20260505151532 | 55 | 212 | 2.0 | 6.0 | 0.00 | 0.00 | 0.00 | 86 | 1015.3 |
| 20260505124520 | 55 | 201 | 2.0 | 7.0 | 0.00 | 0.00 | 0.00 | 88 | 1013.9 |
| 20260505123053 | 55 | 220 | 3.0 | 7.0 | 0.00 | 0.00 | 0.00 | 88 | 1013.8 |
| 20260505121559 | 55 | 213 | 1.0 | 4.0 | 0.00 | 0.00 | 0.00 | 88 | 1013.7 |
| 20260505120028 | 55 | 185 | 4.0 | 7.0 | 0.00 | 0.00 | 0.00 | 88 | 1013.6 |
| 20260505114557 | 55 | 207 | 1.0 | 6.0 | 0.00 | 0.00 | 0.00 | 88 | 1013.5 |
| 20260505113040 | 55 | 245 | 2.0 | 6.0 | 0.00 | 0.00 | 0.00 | 88 | 1013.5 |
| 20260505111605 | 55 | 211 | 3.0 | 7.0 | 0.00 | 0.00 | 0.00 | 88 | 1013.5 |
| 20260505111507 | 55 | 212 | 2.0 | 7.0 | 0.00 | 0.00 | 0.00 | 88 | 1013.5 |
| 20260505101538 | 54 | 174 | 2.0 | 5.0 | 0.00 | 0.00 | 0.00 | 89 | 1013.1 |
| 20260505100026 | 54 | 178 | 3.0 | 6.0 | 0.00 | 0.00 | 0.00 | 89 | 1013.0 |
| 20260505094555 | 54 | 187 | 2.0 | 5.0 | 0.00 | 0.00 | 0.00 | 89 | 1013.0 |
| 20260505093010 | 54 | 206 | 2.0 | 5.0 | 0.00 | 0.00 | 0.00 | 89 | 1012.9 |
| 20260505091515 | 54 | 211 | 3.0 | 8.0 | 0.00 | 0.00 | 0.00 | 89 | 1012.8 |
| 20260505090030 | 54 | 213 | 4.0 | 11.0 | 0.00 | 0.00 | 0.00 | 89 | 1012.7 |
| 20260505084543 | 54 | 226 | 5.0 | 11.0 | 0.00 | 0.00 | 0.00 | 89 | 1012.6 |
| 20260505083103 | 54 | 227 | 4.0 | 8.0 | 0.00 | 0.00 | 0.00 | 89 | 1012.6 |
| 20260505083006 | 54 | 188 | 3.0 | 8.0 | 0.00 | 0.00 | 0.00 | 89 | 1012.6 |
| 20260505081511 | 54 | 192 | 4.0 | 7.0 | 0.00 | 0.00 | 0.00 | 89 | 1012.5 |
| 20260505080049 | 54 | 217 | 3.0 | 7.0 | 0.00 | 0.00 | 0.00 | 89 | 1012.5 |
| 20260505074555 | 54 | 204 | 2.0 | 6.0 | 0.00 | 0.00 | 0.00 | 89 | 1012.3 |
| 20260505073051 | 54 | 215 | 2.0 | 6.0 | 0.00 | 0.00 | 0.00 | 89 | 1012.1 |
| 20260505071558 | 54 | 232 | 3.0 | 9.0 | 0.00 | 0.00 | 0.00 | 89 | 1011.8 |
| 20260505070100 | 55 | 223 | 2.0 | 9.0 | 0.00 | 0.00 | 0.00 | 88 | 1011.9 |